Weather in Satis

Russia / Nizhny Novgorod Oblast'     54°55′21″N   43°13′49″E
temp.,
°C
wind,
m/s
gust,
m/s
humid.,
%
clouds,
%
prec.,
mm/h
press.,
hPa
HPBL,
m
28 november, sun
sun2800:00−1s81797100 3.8 1009735
03:000s61498100 5.1 1008622
06:00+1s51298100 0.9 1007511
09:00+1s512100100 0.9 1007417
12:00+1s411100100 0.0 1008421
15:00+2ssw410100100 0.0 1009320
18:00+2sw510100100 0.0 1011381
21:00+1sw4999100 0.1 1012373
29 november, mon
mon2900:00+1ssw3999100 0.0 1013366
03:00+1s25100100 0.0 1013154
06:00+1se36100100 0.1 1012121
09:00+2se410100100 0.1 1011239
12:00+2se513100100 0.0 1008366
15:00+3se61399100 5.8 1004454
18:00+3sse51399100 3.3 1002440
21:00+4sse51399100 4.8 999412
30 november, tue
tue3000:00+4se61499100 0.2 995419
03:00+5sse81896100 6.7 988787
06:00+7sse91995100 3.6 9821017
09:00+10s102181100 4.3 9771328
12:00+3ssw101890100 0.3 9771263
15:00+1sw132396100 2.7 9781205
18:00+1sw122396100 2.9 9821358
21:00+1sw122076100 3.4 9861177
1 december, wed
wed100:00+1sw91678100 0.0 9881258
03:000ssw81579100 0.1 9891352
06:00−1sw8137962 0.1 989988
09:00−1ssw61181100 0.1 9901030
12:00−1sw61078100 0.2 9901153
15:00−2wsw6108664 0.4 989936
18:00−3wsw5109488 0.3 991798
21:00−3wsw61093100 0.7 992771
2 december, thu
thu200:00−4wsw61091100 0.6 995773
03:00−4wsw5989100 0.9 997773
06:00−6wsw61084100 0.1 999686
09:00−5wsw5882100 0.1 1002690
12:00−4sw5877100 0.0 1002546
15:00−2s51173100 0.0 1002640
18:00−2s61595100 0.8 1001726
21:000sw61497100 1.6 1000694